Regional Weather Roundup
Issued by NWS

Home | Current Version | Previous Version | Graphics & Text | Print | Product List | Glossary On
Versions: 1 2 3 4 5 6 7 8 9 10 11 12 13 14 15 16 17 18 19 20 21 22 23 24 25 26 27 28 29 30 31 32 33 34 35 36 37 38 39 40 41 42 43 44 45 46 47 48 49 50
000
ASUS45 KCYS 180210
RWRWY

WYOMING REGIONAL WEATHER ROUNDUP
NATIONAL WEATHER SERVICE CHEYENNE WY
700 PM MST WED DEC 17 2014

NOTE:  "FAIR" INDICATES FEW OR NO CLOUDS BELOW 12,000 FEET
WITH NO SIGNIFICANT WEATHER AND/OR OBSTRUCTIONS TO VISIBILITY.

WYZ001-180300-
YELLOWSTONE NATIONAL PARK

CITY           SKY/WX    TMP DP  RH WIND       PRES   REMARKS
LK YELLOWSTONE   N/A     21  16  81 CALM      29.96S
W YELLOWSTONE  NOT AVBL

$$
WYZ002>013-054>058-071-098>099-180300-
NORTHERN WYOMING

CITY           SKY/WX    TMP DP  RH WIND       PRES   REMARKS
JACKSON        NOT AVBL
CODY           FAIR      18  12  79 SE7       29.91S WCI   8
GREYBULL       FAIR      18  15  88 CALM      29.97R
WORLAND        FAIR       9   7  92 S5        29.95S WCI   1
SHERIDAN       FAIR      17  11  77 SW6       29.94S WCI   9
BUFFALO        FAIR      24  17  74 SW5       29.94S WCI  18
GILLETTE       FAIR      20  15  81 SW6       29.94S WCI  12
HULETT           N/A    N/A N/A N/A MISG        N/A
NEWCASTLE      CLOUDY    18  16  93 CALM      29.97S FOG

$$
WYZ014>020-022>026-101>103-180300-
CENTRAL WYOMING

CITY           SKY/WX    TMP DP  RH WIND       PRES   REMARKS
BIG PINEY      FAIR      17  13  84 N8        29.98R WCI   7
PINEDALE       FAIR      14  14 100 NW3       29.98S
DUBOIS         CLOUDY    27  18  69 NW8       29.92R WCI  18
LANDER         FOG        7   4  87 CALM      29.96R VSB 1/4
RIVERTON       FOG       17  13  84 CALM      29.97R VSB 1/4
CASPER         FAIR      21  16  81 W9        29.94R WCI  11
DOUGLAS        FAIR      20  17  88 CALM      29.95R

$$
WYZ021-027>030-104>119-180300-
SOUTHERN WYOMING

CITY           SKY/WX    TMP DP  RH WIND       PRES   REMARKS
EVANSTON       FAIR      29  17  61 NW6       29.98R WCI  23
KEMMERER       FAIR      28  19  69 W3        29.98R
FORT BRIDGER   FAIR      31  20  63 W5        30.01R WCI  26
ROCK SPRINGS   FAIR      23  16  74 S3        29.98R
DIXON          FOG      N/A N/A N/A CALM      30.02S VSB<1/4
RAWLINS        FAIR      19  13  77 SW3       29.97R
SARATOGA       FAIR      14  12  92 S5        29.98S WCI   6
LARAMIE        FAIR      17  12  80 SE3       29.94R
CHEYENNE       FAIR      28  17  63 W9        29.94R WCI  19
TORRINGTON     MOCLDY    16  13  88 E7        29.98R WCI   6
PINE BLUFFS    CLOUDY    30  27  86 SW3       29.96R

$$


USA.gov is the U.S. government's official web portal to all federal, state and local government web resources and services.